TimeEDT,TemperatureF,Dew PointF,Humidity,Sea Level PressureIn,VisibilityMPH,Wind Direction,Wind SpeedMPH,Gust SpeedMPH,PrecipitationIn,Events,Conditions,WindDirDegrees,DateUTC
12:53 AM,59.0,48.0,67,29.98,10.0,North,3.5,-,N/A,,Clear,360,2013-07-24 04:53:00
1:53 AM,57.9,46.9,67,29.99,10.0,North,5.8,-,N/A,,Clear,10,2013-07-24 05:53:00
2:53 AM,55.9,46.9,72,29.99,10.0,Variable,3.5,-,N/A,,Clear,0,2013-07-24 06:53:00
3:53 AM,55.9,46.9,72,29.99,10.0,Variable,3.5,-,N/A,,Clear,0,2013-07-24 07:53:00
4:53 AM,55.9,46.0,69,29.99,10.0,North,3.5,-,N/A,,Clear,360,2013-07-24 08:53:00
5:53 AM,54.0,46.0,75,30.01,10.0,Calm,Calm,-,N/A,,Clear,0,2013-07-24 09:53:00
6:53 AM,53.1,46.9,80,30.02,10.0,Calm,Calm,-,N/A,,Clear,0,2013-07-24 10:53:00
7:53 AM,57.9,46.9,67,30.04,10.0,North,3.5,-,N/A,,Clear,10,2013-07-24 11:53:00
8:53 AM,60.1,48.0,64,30.05,10.0,ENE,5.8,-,N/A,,Clear,60,2013-07-24 12:53:00
9:53 AM,64.9,48.9,56,30.06,10.0,NNE,5.8,-,N/A,,Clear,30,2013-07-24 13:53:00
10:53 AM,66.9,46.0,47,30.07,10.0,NNE,8.1,-,N/A,,Clear,30,2013-07-24 14:53:00
11:53 AM,70.0,46.9,44,30.07,10.0,Variable,3.5,-,N/A,,Clear,0,2013-07-24 15:53:00
12:53 PM,72.0,46.0,40,30.06,10.0,Variable,3.5,-,N/A,,Clear,0,2013-07-24 16:53:00
1:53 PM,73.0,46.9,39,30.06,10.0,Calm,Calm,-,N/A,,Clear,0,2013-07-24 17:53:00
2:53 PM,72.0,50.0,46,30.05,10.0,WNW,10.4,-,N/A,,Clear,290,2013-07-24 18:53:00
3:53 PM,72.0,51.1,48,30.05,10.0,NW,10.4,-,N/A,,Clear,320,2013-07-24 19:53:00
4:53 PM,73.0,51.1,46,30.04,10.0,NW,10.4,-,N/A,,Clear,310,2013-07-24 20:53:00
5:53 PM,72.0,51.1,48,30.04,10.0,NW,11.5,-,N/A,,Clear,320,2013-07-24 21:53:00
6:53 PM,71.1,50.0,47,30.04,10.0,NW,8.1,-,N/A,,Clear,310,2013-07-24 22:53:00
7:53 PM,69.1,48.9,49,30.04,10.0,NW,5.8,-,N/A,,Clear,320,2013-07-24 23:53:00
8:53 PM,66.0,48.9,54,30.05,10.0,NW,5.8,-,N/A,,Clear,320,2013-07-25 00:53:00
9:53 PM,63.0,48.0,58,30.06,10.0,Calm,Calm,-,N/A,,Clear,0,2013-07-25 01:53:00
10:53 PM,62.1,48.0,60,30.06,10.0,Variable,3.5,-,N/A,,Clear,0,2013-07-25 02:53:00
11:53 PM,59.0,48.9,69,30.06,10.0,Calm,Calm,-,N/A,,Clear,0,2013-07-25 03:53:00